Location: Unspecified
(41.1850°N, 73.2650°W)
Time: 22:41:51
(UTC+00:00)

Cosmos 2369 - Pass Details

Date: 14 December 2025
Orbit: 839 x 854 km, 71.0° (Epoch: 14 January)

Event Time Altitude Azimuth Distance (km) Brightness Sun altitude
Rises 22:45:21 0° 199° (SSW) 3,405 7.4 -14.6°
Reaches altitude 10° 22:47:47 10° 199° (SSW) 2,474 6.6 -15.0°
Maximum altitude 22:53:29 84° 113° (ESE) 864 3.7 -16.0°
Enters shadow 22:58:34 14° 25° (NNE) 2,245 5.5 -17.0°
